Flag for Germany Weather past 2 weeks in Bocholt, North Rhine-Westphalia, Germany

Now
61 °F

Partly sunny.


Feels Like: 61 °F
Forecast: 45 / 59 °F
Wind: 2 mph from North

Location: Niederrhein

Current Time: May 25, 2015 at 3:49:08 PM

Latest Report: May 25, 2015 at 2:50 PM


Visibility: N/A

Pressure: 29.98 "Hg

Humidity: 55%

Dew point: 45 °F

Location of BocholtLocation

Historic Weather in Bocholt — Graph

°F

Bocholt temperature yesterday

Maximum temperature yesterday: 68 °F (at 4:20 PM)
Minimum temperature yesterday: 45 °F (at 4:20 AM)
Average temperature yesterday: 58 °F

Past Weeks' High & Low Weather Summary

 TemperatureHumidityPressure
High81 °F (May 11, 4:50 PM)100% (May 21, 4:50 AM)30.33 "Hg (May 21, 4:50 AM)
Low39 °F (May 14, 5:20 AM)30% (May 11, 4:50 PM)29.65 "Hg (May 18, 5:50 PM)
Average57 °F63%30.07 "Hg
* Reported May 10 2:20 PM — May 25 2:20 PM, Bocholt, Weather by CustomWeather, © 2015

Note: Actual official high and low records may vary slightly from our data, if they occured in-between our weather recording intervals... More about our weather records

Advertising

Bocholt weather history for previous 24 hours

 ConditionsComfort  
Time TempWeatherWind HumidityBarometerVisibility
2:20 PM
Mon, May 25
61 °FPartly sunny.5 mph52%29.98 "HgN/A
1:50 PM61 °FSunny.6 mph52%29.98 "Hg10 mi
1:20 PM59 °FPassing clouds.5 mph51%30.01 "HgN/A
12:50 PM59 °FPassing clouds.6 mph55%30.01 "HgN/A
12:20 PM59 °FPassing clouds.5 mph59%29.98 "HgN/A
11:50 AM57 °FPartly sunny.6 mph67%29.98 "HgN/A
11:20 AM55 °FPartly sunny.3 mph63%30.01 "HgN/A
10:50 AM55 °FPartly sunny.3 mph67%30.01 "HgN/A
10:20 AM54 °FScattered clouds.1 mph82%30.01 "HgN/A
9:50 AM52 °FPartly sunny.2 mph88%30.01 "HgN/A
9:20 AM52 °FPartly sunny.3 mph88%30.01 "HgN/A
8:50 AM54 °FSprinkles. Broken clouds.3 mph100%30.01 "Hg4 mi
8:20 AM54 °FLight rain. Fog.5 mph100%30.01 "Hg2 mi
7:50 AM54 °FLight rain. Fog.3 mph94%30.01 "Hg1 mi
7:20 AM54 °FDrizzle. Fog.5 mph94%30.01 "Hg1 mi
6:50 AM54 °FLight rain. Fog.6 mph94%30.01 "Hg2 mi
6:20 AM52 °FLight rain. Fog.5 mph100%30.01 "Hg2 mi
5:50 AM54 °FPassing clouds.5 mph88%30.01 "Hg4 mi
5:20 AM54 °FPassing clouds.3 mph88%30.01 "HgN/A
4:50 AM52 °FPassing clouds.3 mph94%30.01 "HgN/A
4:20 AM52 °FPassing clouds.3 mph88%30.01 "HgN/A
11:50 PM
Sun, May 24
54 °FClear.No wind54%30.04 "Hg10 mi
11:20 PM55 °FSunny.2 mph47%30.04 "Hg10 mi
10:50 PM57 °FSunny.3 mph44%30.04 "Hg10 mi
10:20 PM59 °FSunny.5 mph39%30.04 "Hg10 mi
9:50 PM61 °FSunny.3 mph39%30.04 "Hg10 mi
9:20 PM61 °FPassing clouds.5 mph42%30.04 "HgN/A
8:50 PM64 °FPassing clouds.6 mph37%30.04 "HgN/A
8:20 PM66 °FPassing clouds.7 mph43%30.04 "HgN/A
7:50 PM68 °FPassing clouds.6 mph40%30.04 "HgN/A
7:20 PM68 °FPassing clouds.6 mph40%30.04 "HgN/A
6:50 PM68 °FSunny.5 mph40%30.04 "Hg10 mi
6:20 PM68 °FSunny.7 mph40%30.04 "Hg10 mi
5:50 PM68 °FSunny.2 mph43%30.04 "Hg10 mi
5:20 PM68 °FPassing clouds.6 mph43%30.07 "HgN/A
4:50 PM68 °FSunny.6 mph43%30.07 "Hg10 mi
4:20 PM68 °FSunny.6 mph43%30.07 "Hg10 mi
3:50 PM66 °FSunny.2 mph46%30.09 "Hg10 mi
3:20 PM64 °FScattered clouds.3 mph52%30.09 "HgN/A
Weather by CustomWeather, © 2015

See weather overviewHow to use our weather pages